| time (UTC) | temp F | wind direction | speed MPH | gust MPH | rain 1hr in | rain 24hr in | rain mn in | humidity % | barometer mb |
| 20260506073333 | 63 | 16 | 3.0 | 4.0 | 0.00 | 0.00 | 0.00 | 80 | 1011.3 |
| 20260506072830 | 63 | 32 | 3.0 | 6.0 | 0.00 | 0.00 | 0.00 | 80 | 1011.4 |
| 20260506072328 | 63 | 29 | 5.0 | 6.0 | 0.00 | 0.00 | 0.00 | 80 | 1011.2 |
| 20260506071825 | 63 | 34 | 3.0 | 8.0 | 0.00 | 0.00 | 0.00 | 80 | 1011.4 |
| 20260506071323 | 63 | 16 | 1.0 | 12.0 | 0.00 | 0.00 | 0.00 | 79 | 1011.4 |
| 20260506070820 | 63 | 36 | 3.0 | 10.0 | 0.00 | 0.00 | 0.00 | 79 | 1011.5 |
| 20260506070317 | 63 | 49 | 6.0 | 9.0 | 0.00 | 0.00 | 0.00 | 79 | 1011.0 |
| 20260506062254 | 64 | 30 | 4.0 | 5.0 | 0.00 | 0.00 | 0.00 | 78 | 1011.2 |
| 20260506061750 | 64 | 65 | 3.0 | 4.0 | 0.00 | 0.00 | 0.00 | 78 | 1011.1 |
| 20260506061247 | 64 | 3 | 1.0 | 5.0 | 0.00 | 0.00 | 0.00 | 78 | 1011.3 |
| 20260506060745 | 64 | 344 | 3.0 | 6.0 | 0.00 | 0.00 | 0.00 | 77 | 1011.1 |
| 20260506060243 | 64 | 335 | 2.0 | 5.0 | 0.00 | 0.00 | 0.00 | 77 | 1011.2 |
| 20260506051214 | 66 | 357 | 5.0 | 8.0 | 0.00 | 0.00 | 0.00 | 75 | 1011.2 |
| 20260506050713 | 66 | 285 | 4.0 | 7.0 | 0.00 | 0.00 | 0.00 | 75 | 1011.3 |
| 20260506050210 | 67 | 17 | 3.0 | 6.0 | 0.00 | 0.00 | 0.00 | 75 | 1011.4 |
| 20260506044701 | 67 | 45 | 5.0 | 7.0 | 0.00 | 0.00 | 0.00 | 74 | 1011.1 |
| 20260506044157 | 67 | 17 | 3.0 | 11.0 | 0.00 | 0.00 | 0.00 | 74 | 1011.0 |
| 20260506043654 | 67 | 24 | 4.0 | 6.0 | 0.00 | 0.00 | 0.00 | 74 | 1011.0 |
| 20260506043152 | 67 | 50 | 4.0 | 6.0 | 0.00 | 0.00 | 0.00 | 73 | 1011.1 |
| 20260506042651 | 68 | 40 | 5.0 | 5.0 | 0.00 | 0.00 | 0.00 | 73 | 1010.9 |
| 20260506042149 | 68 | 345 | 2.0 | 7.0 | 0.00 | 0.00 | 0.00 | 73 | 1011.0 |
| 20260506041652 | 68 | 16 | 3.0 | 7.0 | 0.00 | 0.00 | 0.00 | 72 | 1011.0 |
| 20260506041143 | 68 | 311 | 7.0 | 10.0 | 0.00 | 0.00 | 0.00 | 72 | 1011.1 |
| 20260506040642 | 68 | 7 | 4.0 | 13.0 | 0.00 | 0.00 | 0.00 | 72 | 1011.1 |
| 20260506040138 | 68 | 353 | 7.0 | 9.0 | 0.00 | 0.00 | 0.00 | 71 | 1011.1 |
| 20260506035635 | 68 | 282 | 4.0 | 9.0 | 0.00 | 0.00 | 0.00 | 72 | 1011.2 |
| 20260506035131 | 68 | 0 | 6.0 | 12.0 | 0.00 | 0.00 | 0.00 | 71 | 1010.9 |
| 20260506034629 | 69 | 310 | 6.0 | 7.0 | 0.00 | 0.00 | 0.00 | 71 | 1010.9 |
| 20260506034126 | 69 | 307 | 5.0 | 10.0 | 0.00 | 0.00 | 0.00 | 71 | 1010.8 |
| 20260506033623 | 69 | 283 | 6.0 | 9.0 | 0.00 | 0.00 | 0.00 | 71 | 1010.6 |
| 20260506033120 | 69 | 339 | 4.0 | 12.0 | 0.00 | 0.00 | 0.00 | 70 | 1010.4 |
| 20260506032617 | 69 | 287 | 8.0 | 13.0 | 0.00 | 0.00 | 0.00 | 71 | 1010.5 |
| 20260506032114 | 70 | 11 | 3.0 | 10.0 | 0.00 | 0.00 | 0.00 | 72 | 1010.3 |
| 20260506031611 | 70 | 272 | 2.0 | 7.0 | 0.00 | 0.00 | 0.00 | 72 | 1009.9 |
| 20260506031108 | 70 | 310 | 6.0 | 8.0 | 0.00 | 0.00 | 0.00 | 72 | 1009.8 |
| 20260506030607 | 71 | 292 | 7.0 | 9.0 | 0.00 | 0.00 | 0.00 | 72 | 1009.7 |
| 20260506030103 | 71 | 304 | 4.0 | 9.0 | 0.00 | 0.00 | 0.00 | 71 | 1009.6 |
| 20260506025600 | 71 | 9 | 6.0 | 9.0 | 0.00 | 0.00 | 0.00 | 71 | 1009.4 |
| 20260506025056 | 71 | 54 | 4.0 | 11.0 | 0.00 | 0.00 | 0.00 | 70 | 1009.2 |
| 20260506024554 | 71 | 40 | 7.0 | 8.0 | 0.00 | 0.00 | 0.00 | 70 | 1009.2 |
| 20260506024050 | 72 | 358 | 6.0 | 11.0 | 0.00 | 0.00 | 0.00 | 69 | 1009.3 |
| 20260506023546 | 72 | 11 | 6.0 | 8.0 | 0.00 | 0.00 | 0.00 | 69 | 1009.2 |
| 20260506023044 | 72 | 24 | 9.0 | 10.0 | 0.00 | 0.00 | 0.00 | 68 | 1009.0 |
| 20260506022541 | 73 | 328 | 11.0 | 11.0 | 0.00 | 0.00 | 0.00 | 68 | 1008.9 |
| 20260506022038 | 73 | 359 | 4.0 | 11.0 | 0.00 | 0.00 | 0.00 | 67 | 1008.6 |
| 20260506021536 | 73 | 15 | 5.0 | 13.0 | 0.00 | 0.00 | 0.00 | 67 | 1008.5 |
| 20260506021033 | 73 | 349 | 6.0 | 11.0 | 0.00 | 0.00 | 0.00 | 68 | 1008.5 |
| 20260506020530 | 73 | 8 | 3.0 | 12.0 | 0.00 | 0.00 | 0.00 | 68 | 1008.7 |
| 20260506020027 | 73 | 343 | 4.0 | 7.0 | 0.00 | 0.00 | 0.00 | 68 | 1008.4 |
| 20260506015525 | 74 | 308 | 6.0 | 7.0 | 0.00 | 0.00 | 0.00 | 67 | 1008.1 |
| 20260506015022 | 74 | 5 | 5.0 | 13.0 | 0.00 | 0.00 | 0.00 | 67 | 1008.1 |
| 20260506014519 | 74 | 343 | 4.0 | 10.0 | 0.00 | 0.00 | 0.00 | 67 | 1007.9 |
| 20260506014015 | 75 | 351 | 5.0 | 7.0 | 0.00 | 0.00 | 0.00 | 66 | 1007.6 |
| 20260506013513 | 75 | 348 | 5.0 | 9.0 | 0.00 | 0.00 | 0.00 | 66 | 1007.5 |
| 20260506013010 | 75 | 357 | 5.0 | 12.0 | 0.00 | 0.00 | 0.00 | 66 | 1007.4 |
| 20260506012506 | 75 | 353 | 7.0 | 9.0 | 0.00 | 0.00 | 0.00 | 66 | 1007.1 |
| 20260506012003 | 76 | 332 | 4.0 | 9.0 | 0.00 | 0.00 | 0.00 | 66 | 1007.1 |
| 20260506011500 | 76 | 329 | 6.0 | 9.0 | 0.00 | 0.00 | 0.00 | 65 | 1007.1 |
| 20260506010956 | 77 | 356 | 8.0 | 9.0 | 0.00 | 0.00 | 0.00 | 64 | 1007.0 |
| 20260506010456 | 77 | 354 | 5.0 | 9.0 | 0.00 | 0.00 | 0.00 | 63 | 1006.9 |
| 20260506005951 | 78 | 349 | 6.0 | 12.0 | 0.00 | 0.00 | 0.00 | 63 | 1007.1 |
| 20260506005449 | 78 | 16 | 4.0 | 7.0 | 0.00 | 0.00 | 0.00 | 63 | 1007.0 |
| 20260506004944 | 78 | 17 | 4.0 | 6.0 | 0.00 | 0.00 | 0.00 | 63 | 1006.7 |
| 20260506004442 | 79 | 3 | 5.0 | 11.0 | 0.00 | 0.00 | 0.00 | 62 | 1006.8 |
| 20260506003938 | 80 | 5 | 7.0 | 12.0 | 0.00 | 0.00 | 0.00 | 62 | 1006.4 |
| 20260506003435 | 81 | 0 | 5.0 | 10.0 | 0.00 | 0.00 | 0.00 | 62 | 1006.4 |
| 20260506002931 | 81 | 323 | 7.0 | 11.0 | 0.00 | 0.00 | 0.00 | 61 | 1006.5 |
| 20260506002427 | 82 | 13 | 7.0 | 8.0 | 0.00 | 0.00 | 0.00 | 62 | 1006.3 |
| 20260506001923 | 83 | 4 | 7.0 | 10.0 | 0.00 | 0.00 | 0.00 | 60 | 1006.3 |
| 20260506001420 | 84 | 15 | 10.0 | 12.0 | 0.00 | 0.00 | 0.00 | 59 | 1006.2 |
| 20260506000918 | 85 | 324 | 4.0 | 12.0 | 0.00 | 0.00 | 0.00 | 56 | 1006.4 |
| 20260506000416 | 87 | 349 | 7.0 | 11.0 | 0.00 | 0.00 | 0.00 | 53 | 1006.3 |
| 20260505235912 | 89 | 297 | 4.0 | 11.0 | 0.00 | 0.00 | 0.00 | 49 | 1006.1 |
| 20260505235410 | 91 | 275 | 2.0 | 2.0 | 0.00 | 0.00 | 0.00 | 50 | 1005.9 |
| 20260505234906 | 91 | 190 | 0.0 | 3.0 | 0.00 | 0.00 | 0.00 | 49 | 1005.5 |
| 20260505234404 | 91 | 277 | 0.0 | 3.0 | 0.00 | 0.00 | 0.00 | 49 | 1005.5 |
| 20260505233900 | 92 | 154 | 5.0 | 5.0 | 0.00 | 0.00 | 0.00 | 48 | 1005.3 |
| 20260505233358 | 91 | 188 | 4.0 | 4.0 | 0.00 | 0.00 | 0.00 | 48 | 1005.3 |
| 20260505232855 | 92 | 160 | 2.0 | 2.0 | 0.00 | 0.00 | 0.00 | 49 | 1005.4 |
| 20260505232353 | 92 | 109 | 3.0 | 5.0 | 0.00 | 0.00 | 0.00 | 48 | 1005.2 |
| 20260505231850 | 91 | 222 | 2.0 | 5.0 | 0.00 | 0.00 | 0.00 | 49 | 1005.4 |
| 20260505231347 | 91 | 158 | 3.0 | 9.0 | 0.00 | 0.00 | 0.00 | 48 | 1005.2 |
| 20260505230845 | 92 | 206 | 3.0 | 4.0 | 0.00 | 0.00 | 0.00 | 48 | 1005.2 |
| 20260505230342 | 93 | 179 | 3.0 | 5.0 | 0.00 | 0.00 | 0.00 | 47 | 1005.2 |
| 20260505225839 | 93 | 194 | 3.0 | 6.0 | 0.00 | 0.00 | 0.00 | 46 | 1005.2 |
| 20260505225336 | 94 | 151 | 2.0 | 7.0 | 0.00 | 0.00 | 0.00 | 46 | 1005.3 |
| 20260505224831 | 95 | 183 | 2.0 | 5.0 | 0.00 | 0.00 | 0.00 | 44 | 1005.3 |
| 20260505224329 | 96 | 201 | 2.0 | 3.0 | 0.00 | 0.00 | 0.00 | 41 | 1005.2 |
| 20260505223826 | 96 | 295 | 0.0 | 3.0 | 0.00 | 0.00 | 0.00 | 40 | 1005.2 |
| 20260505223323 | 95 | 0 | 0.0 | 3.0 | 0.00 | 0.00 | 0.00 | 41 | 1005.1 |
| 20260505222818 | 94 | 176 | 2.0 | 4.0 | 0.00 | 0.00 | 0.00 | 44 | 1005.1 |
| 20260505222315 | 94 | 276 | 3.0 | 4.0 | 0.00 | 0.00 | 0.00 | 42 | 1005.3 |
| 20260505221813 | 94 | 249 | 1.0 | 5.0 | 0.00 | 0.00 | 0.00 | 42 | 1005.3 |
| 20260505221309 | 94 | 173 | 2.0 | 4.0 | 0.00 | 0.00 | 0.00 | 41 | 1005.2 |
| 20260505220806 | 94 | 164 | 6.0 | 7.0 | 0.00 | 0.00 | 0.00 | 39 | 1005.2 |
| 20260505220303 | 94 | 168 | 4.0 | 6.0 | 0.00 | 0.00 | 0.00 | 41 | 1005.0 |
| 20260505215801 | 94 | 255 | 3.0 | 5.0 | 0.00 | 0.00 | 0.00 | 44 | 1005.2 |
| 20260505215259 | 95 | 209 | 2.0 | 5.0 | 0.00 | 0.00 | 0.00 | 44 | 1005.3 |
| 20260505214756 | 94 | 153 | 2.0 | 7.0 | 0.00 | 0.00 | 0.00 | 42 | 1005.1 |
| 20260505214253 | 96 | 296 | 3.0 | 4.0 | 0.00 | 0.00 | 0.00 | 42 | 1005.3 |
| 20260505213751 | 95 | 247 | 2.0 | 5.0 | 0.00 | 0.00 | 0.00 | 43 | 1005.2 |
| 20260505213248 | 94 | 232 | 2.0 | 3.0 | 0.00 | 0.00 | 0.00 | 44 | 1005.3 |
| 20260505212743 | 94 | 208 | 3.0 | 5.0 | 0.00 | 0.00 | 0.00 | 42 | 1005.3 |
| 20260505212241 | 95 | 170 | 1.0 | 2.0 | 0.00 | 0.00 | 0.00 | 44 | 1005.3 |
| 20260505211738 | 93 | 168 | 1.0 | 5.0 | 0.00 | 0.00 | 0.00 | 45 | 1005.5 |
| 20260505211235 | 94 | 260 | 5.0 | 5.0 | 0.00 | 0.00 | 0.00 | 44 | 1005.2 |
| 20260505210732 | 94 | 308 | 2.0 | 5.0 | 0.00 | 0.00 | 0.00 | 45 | 1005.3 |
| 20260505210228 | 94 | 269 | 0.0 | 4.0 | 0.00 | 0.00 | 0.00 | 45 | 1005.7 |
| 20260505205726 | 94 | 272 | 3.0 | 5.0 | 0.00 | 0.00 | 0.00 | 46 | 1005.7 |
| 20260505205224 | 94 | 202 | 5.0 | 6.0 | 0.00 | 0.00 | 0.00 | 44 | 1005.6 |
| 20260505204720 | 94 | 214 | 1.0 | 5.0 | 0.00 | 0.00 | 0.00 | 43 | 1005.7 |
| 20260505204218 | 93 | 226 | 5.0 | 6.0 | 0.00 | 0.00 | 0.00 | 45 | 1006.0 |
| 20260505203715 | 95 | 172 | 5.0 | 6.0 | 0.00 | 0.00 | 0.00 | 45 | 1006.1 |
| 20260505203212 | 93 | 220 | 4.0 | 7.0 | 0.00 | 0.00 | 0.00 | 48 | 1005.9 |
| 20260505202708 | 93 | 241 | 2.0 | 7.0 | 0.00 | 0.00 | 0.00 | 46 | 1005.8 |
| 20260505202204 | 93 | 196 | 3.0 | 8.0 | 0.00 | 0.00 | 0.00 | 45 | 1006.0 |
| 20260505201700 | 93 | 226 | 2.0 | 5.0 | 0.00 | 0.00 | 0.00 | 47 | 1006.2 |
| 20260505201159 | 93 | 212 | 5.0 | 8.0 | 0.00 | 0.00 | 0.00 | 46 | 1006.2 |
| 20260505200657 | 94 | 246 | 4.0 | 10.0 | 0.00 | 0.00 | 0.00 | 45 | 1006.2 |
| 20260505200153 | 93 | 189 | 4.0 | 5.0 | 0.00 | 0.00 | 0.00 | 44 | 1006.2 |
| 20260505195649 | 92 | 224 | 0.0 | 8.0 | 0.00 | 0.00 | 0.00 | 47 | 1006.3 |
| 20260505195146 | 92 | 289 | 3.0 | 6.0 | 0.00 | 0.00 | 0.00 | 48 | 1006.3 |
| 20260505194644 | 91 | 191 | 3.0 | 6.0 | 0.00 | 0.00 | 0.00 | 48 | 1006.4 |
| 20260505194139 | 91 | 241 | 3.0 | 6.0 | 0.00 | 0.00 | 0.00 | 49 | 1006.2 |
| 20260505193636 | 91 | 251 | 4.0 | 6.0 | 0.00 | 0.00 | 0.00 | 48 | 1006.4 |
| 20260505193133 | 91 | 238 | 3.0 | 9.0 | 0.00 | 0.00 | 0.00 | 49 | 1006.6 |
| 20260505192632 | 91 | 246 | 2.0 | 7.0 | 0.00 | 0.00 | 0.00 | 50 | 1006.6 |
| 20260505192129 | 91 | 189 | 5.0 | 7.0 | 0.00 | 0.00 | 0.00 | 49 | 1006.6 |
| 20260505191627 | 92 | 251 | 3.0 | 8.0 | 0.00 | 0.00 | 0.00 | 51 | 1006.6 |
| 20260505191125 | 92 | 206 | 3.0 | 6.0 | 0.00 | 0.00 | 0.00 | 50 | 1006.6 |
| 20260505190621 | 91 | 193 | 6.0 | 7.0 | 0.00 | 0.00 | 0.00 | 49 | 1006.7 |
| 20260505190115 | 90 | 272 | 3.0 | 8.0 | 0.00 | 0.00 | 0.00 | 51 | 1006.7 |
| 20260505185612 | 90 | 201 | 4.0 | 9.0 | 0.00 | 0.00 | 0.00 | 53 | 1006.7 |
| 20260505185108 | 90 | 173 | 0.0 | 6.0 | 0.00 | 0.00 | 0.00 | 53 | 1007.0 |
| 20260505184600 | 89 | 278 | 4.0 | 8.0 | 0.00 | 0.00 | 0.00 | 53 | 1007.0 |
| 20260505184057 | 89 | 225 | 3.0 | 7.0 | 0.00 | 0.00 | 0.00 | 55 | 1006.9 |
| 20260505183553 | 89 | 186 | 7.0 | 10.0 | 0.00 | 0.00 | 0.00 | 55 | 1007.0 |
| 20260505183051 | 90 | 250 | 1.0 | 7.0 | 0.00 | 0.00 | 0.00 | 57 | 1007.3 |
| 20260505182547 | 90 | 322 | 3.0 | 5.0 | 0.00 | 0.00 | 0.00 | 57 | 1007.0 |
| 20260505182044 | 89 | 263 | 2.0 | 6.0 | 0.00 | 0.00 | 0.00 | 58 | 1007.2 |
| 20260505181541 | 87 | 167 | 5.0 | 9.0 | 0.00 | 0.00 | 0.00 | 60 | 1007.2 |
| 20260505181038 | 87 | 214 | 3.0 | 10.0 | 0.00 | 0.00 | 0.00 | 61 | 1007.2 |
| 20260505180533 | 87 | 218 | 6.0 | 12.0 | 0.00 | 0.00 | 0.00 | 61 | 1007.1 |
| 20260505180032 | 86 | 239 | 3.0 | 10.0 | 0.00 | 0.00 | 0.00 | 61 | 1007.2 |
| 20260505175526 | 86 | 181 | 5.0 | 8.0 | 0.00 | 0.00 | 0.00 | 63 | 1007.3 |
| 20260505175024 | 87 | 246 | 3.0 | 12.0 | 0.00 | 0.00 | 0.00 | 62 | 1007.2 |
| 20260505174520 | 86 | 194 | 8.0 | 10.0 | 0.00 | 0.00 | 0.00 | 63 | 1007.4 |
| 20260505174016 | 85 | 187 | 8.0 | 13.0 | 0.00 | 0.00 | 0.00 | 64 | 1007.3 |
| 20260505173513 | 85 | 212 | 10.0 | 13.0 | 0.00 | 0.00 | 0.00 | 64 | 1007.4 |
| 20260505173010 | 85 | 247 | 3.0 | 13.0 | 0.00 | 0.00 | 0.00 | 68 | 1007.5 |
| 20260505172508 | 84 | 218 | 2.0 | 8.0 | 0.00 | 0.00 | 0.00 | 68 | 1007.4 |
| 20260505172003 | 83 | 201 | 6.0 | 12.0 | 0.00 | 0.00 | 0.00 | 69 | 1007.3 |
| 20260505171459 | 83 | 164 | 8.0 | 9.0 | 0.00 | 0.00 | 0.00 | 68 | 1007.3 |
| 20260505170956 | 83 | 191 | 3.0 | 11.0 | 0.00 | 0.00 | 0.00 | 70 | 1007.3 |
| 20260505170453 | 83 | 199 | 5.0 | 9.0 | 0.00 | 0.00 | 0.00 | 69 | 1007.3 |
| 20260505165948 | 83 | 184 | 3.0 | 10.0 | 0.00 | 0.00 | 0.00 | 69 | 1007.2 |
| 20260505165444 | 83 | 162 | 6.0 | 7.0 | 0.00 | 0.00 | 0.00 | 70 | 1007.4 |
| 20260505164940 | 82 | 194 | 6.0 | 8.0 | 0.00 | 0.00 | 0.00 | 69 | 1007.2 |
| 20260505164437 | 83 | 212 | 8.0 | 9.0 | 0.00 | 0.00 | 0.00 | 70 | 1007.2 |
| 20260505163934 | 82 | 229 | 4.0 | 12.0 | 0.00 | 0.00 | 0.00 | 70 | 1007.3 |
| 20260505163433 | 82 | 218 | 8.0 | 11.0 | 0.00 | 0.00 | 0.00 | 70 | 1007.3 |
| 20260505162932 | 82 | 165 | 7.0 | 9.0 | 0.00 | 0.00 | 0.00 | 71 | 1007.3 |
| 20260505162427 | 81 | 192 | 7.0 | 8.0 | 0.00 | 0.00 | 0.00 | 72 | 1007.1 |
| 20260505161924 | 81 | 188 | 12.0 | 12.0 | 0.00 | 0.00 | 0.00 | 71 | 1007.2 |
| 20260505161421 | 81 | 225 | 5.0 | 13.0 | 0.00 | 0.00 | 0.00 | 72 | 1007.2 |
| 20260505160918 | 81 | 217 | 5.0 | 10.0 | 0.00 | 0.00 | 0.00 | 72 | 1007.4 |
| 20260505160416 | 80 | 233 | 4.0 | 10.0 | 0.00 | 0.00 | 0.00 | 72 | 1007.3 |
| 20260505153355 | 79 | 226 | 3.0 | 10.0 | 0.00 | 0.00 | 0.00 | 75 | 1007.6 |
| 20260505152852 | 79 | 218 | 5.0 | 7.0 | 0.00 | 0.00 | 0.00 | 75 | 1007.4 |
| 20260505152344 | 78 | 230 | 5.0 | 12.0 | 0.00 | 0.00 | 0.00 | 75 | 1007.7 |
| 20260505151843 | 78 | 189 | 4.0 | 13.0 | 0.00 | 0.00 | 0.00 | 77 | 1007.6 |
| 20260505151340 | 78 | 162 | 4.0 | 9.0 | 0.00 | 0.00 | 0.00 | 78 | 1007.6 |
| 20260505150837 | 78 | 218 | 10.0 | 13.0 | 0.00 | 0.00 | 0.00 | 77 | 1007.5 |
| 20260505150334 | 77 | 204 | 5.0 | 10.0 | 0.00 | 0.00 | 0.00 | 77 | 1007.6 |
| 20260505140259 | 74 | 194 | 4.0 | 9.0 | 0.00 | 0.00 | 0.00 | 84 | 1007.1 |
| 20260505130217 | 71 | 169 | 5.0 | 6.0 | 0.00 | 0.00 | 0.00 | 88 | 1007.2 |
| 20260505124707 | 70 | 261 | 3.0 | 7.0 | 0.00 | 0.00 | 0.00 | 89 | 1007.0 |
| 20260505124204 | 70 | 247 | 3.0 | 6.0 | 0.00 | 0.00 | 0.00 | 90 | 1006.9 |
| 20260505123659 | 70 | 201 | 2.0 | 6.0 | 0.00 | 0.00 | 0.00 | 90 | 1006.8 |
| 20260505123156 | 70 | 178 | 3.0 | 5.0 | 0.00 | 0.00 | 0.00 | 90 | 1006.7 |
| 20260505122653 | 70 | 173 | 3.0 | 9.0 | 0.00 | 0.00 | 0.00 | 91 | 1006.7 |
| 20260505122149 | 69 | 177 | 2.0 | 6.0 | 0.00 | 0.00 | 0.00 | 91 | 1006.6 |
| 20260505121641 | 69 | 174 | 3.0 | 5.0 | 0.00 | 0.00 | 0.00 | 91 | 1006.4 |
| 20260505121137 | 69 | 153 | 3.0 | 6.0 | 0.00 | 0.00 | 0.00 | 91 | 1006.3 |
| 20260505120633 | 69 | 171 | 4.0 | 6.0 | 0.00 | 0.00 | 0.00 | 91 | 1006.4 |
| 20260505120129 | 69 | 186 | 2.0 | 6.0 | 0.00 | 0.00 | 0.00 | 91 | 1006.5 |
| 20260505115624 | 69 | 199 | 4.0 | 5.0 | 0.00 | 0.00 | 0.00 | 91 | 1006.5 |
| 20260505115122 | 69 | 183 | 4.0 | 5.0 | 0.00 | 0.00 | 0.00 | 91 | 1006.2 |
| 20260505114618 | 69 | 187 | 5.0 | 5.0 | 0.00 | 0.00 | 0.00 | 91 | 1006.4 |
| 20260505114115 | 69 | 185 | 3.0 | 5.0 | 0.00 | 0.00 | 0.00 | 91 | 1006.3 |
| 20260505113611 | 69 | 170 | 4.0 | 8.0 | 0.00 | 0.00 | 0.00 | 91 | 1006.0 |
| 20260505113108 | 69 | 167 | 2.0 | 6.0 | 0.00 | 0.00 | 0.00 | 91 | 1006.2 |
| 20260505112604 | 69 | 210 | 2.0 | 4.0 | 0.00 | 0.00 | 0.00 | 90 | 1006.1 |
| 20260505112102 | 69 | 145 | 5.0 | 8.0 | 0.00 | 0.00 | 0.00 | 91 | 1006.3 |
| 20260505111556 | 69 | 213 | 1.0 | 6.0 | 0.00 | 0.00 | 0.00 | 90 | 1006.3 |
| 20260505111052 | 69 | 176 | 4.0 | 5.0 | 0.00 | 0.00 | 0.00 | 90 | 1006.1 |
| 20260505110549 | 69 | 195 | 5.0 | 6.0 | 0.00 | 0.00 | 0.00 | 90 | 1006.2 |
| 20260505102021 | 70 | 194 | 4.0 | 6.0 | 0.00 | 0.00 | 0.00 | 89 | 1006.2 |
| 20260505101520 | 70 | 198 | 3.0 | 8.0 | 0.00 | 0.00 | 0.00 | 89 | 1006.2 |
| 20260505101016 | 70 | 203 | 5.0 | 8.0 | 0.00 | 0.00 | 0.00 | 89 | 1006.1 |
| 20260505100513 | 70 | 173 | 3.0 | 7.0 | 0.00 | 0.00 | 0.00 | 89 | 1006.1 |
| 20260505100010 | 70 | 186 | 4.0 | 5.0 | 0.00 | 0.00 | 0.00 | 89 | 1006.2 |
| 20260505095506 | 70 | 186 | 5.0 | 10.0 | 0.00 | 0.00 | 0.00 | 89 | 1006.3 |
| 20260505095002 | 70 | 235 | 4.0 | 6.0 | 0.00 | 0.00 | 0.00 | 89 | 1006.3 |
| 20260505094459 | 70 | 167 | 4.0 | 7.0 | 0.00 | 0.00 | 0.00 | 89 | 1006.3 |
| 20260505093955 | 70 | 172 | 3.0 | 7.0 | 0.00 | 0.00 | 0.00 | 89 | 1006.4 |
| 20260505093452 | 70 | 161 | 2.0 | 8.0 | 0.00 | 0.00 | 0.00 | 89 | 1006.4 |
| 20260505092949 | 70 | 170 | 4.0 | 7.0 | 0.00 | 0.00 | 0.00 | 88 | 1006.4 |
| 20260505092447 | 70 | 184 | 4.0 | 7.0 | 0.00 | 0.00 | 0.00 | 88 | 1006.4 |
| 20260505091944 | 70 | 202 | 5.0 | 7.0 | 0.00 | 0.00 | 0.00 | 89 | 1006.5 |
| 20260505091441 | 70 | 176 | 2.0 | 5.0 | 0.00 | 0.00 | 0.00 | 88 | 1006.6 |
| 20260505090939 | 70 | 188 | 2.0 | 6.0 | 0.00 | 0.00 | 0.00 | 88 | 1006.5 |
| 20260505090438 | 70 | 193 | 3.0 | 6.0 | 0.00 | 0.00 | 0.00 | 88 | 1006.6 |
| 20260505085934 | 70 | 161 | 4.0 | 8.0 | 0.00 | 0.00 | 0.00 | 88 | 1006.6 |
| 20260505085432 | 70 | 165 | 2.0 | 5.0 | 0.00 | 0.00 | 0.00 | 87 | 1006.7 |
| 20260505084930 | 70 | 167 | 3.0 | 7.0 | 0.00 | 0.00 | 0.00 | 87 | 1006.8 |
| 20260505084428 | 70 | 160 | 5.0 | 6.0 | 0.00 | 0.00 | 0.00 | 87 | 1006.7 |
| 20260505083926 | 70 | 151 | 4.0 | 7.0 | 0.00 | 0.00 | 0.00 | 87 | 1006.6 |
| 20260505083423 | 70 | 164 | 4.0 | 6.0 | 0.00 | 0.00 | 0.00 | 87 | 1006.9 |
| 20260505082919 | 70 | 190 | 3.0 | 8.0 | 0.00 | 0.00 | 0.00 | 86 | 1006.9 |
| 20260505082415 | 70 | 172 | 5.0 | 7.0 | 0.00 | 0.00 | 0.00 | 86 | 1006.8 |
| 20260505081912 | 70 | 230 | 3.0 | 9.0 | 0.00 | 0.00 | 0.00 | 86 | 1006.6 |
| 20260505081409 | 70 | 145 | 4.0 | 5.0 | 0.00 | 0.00 | 0.00 | 85 | 1006.5 |
| 20260505080906 | 71 | 197 | 5.0 | 9.0 | 0.00 | 0.00 | 0.00 | 85 | 1006.7 |
| 20260505080402 | 71 | 176 | 2.0 | 6.0 | 0.00 | 0.00 | 0.00 | 84 | 1006.8 |